When you browse on this site, cookies collect data to enhance your experience and personalize the content and advertising you see.
Visit our Privacy Policy to learn more. By continuing to use the site, you agree to this use of cookies and data.
  • In Portugal
  • List of Countries
  • For 7 days
  • Water Temperature
  • Weather Map
  • Weather Widgets
  • user-avatar
    Login

    Hourly Weather Barisal

    Today, 1 June, Monday

    Time Temperature Precipitation Wind Pressure Humidity
    00:00 +31°C° 0 mm 2 mps 755 mmHg 78%
    01:00 +30°C° 0 mm 2 mps 755 mmHg 79%
    02:00 +30°C° 0 mm 3 mps 755 mmHg 80%
    03:00 +30°C° 0 mm 3 mps 755 mmHg 82%
    04:00 +30°C° 0 mm 3 mps 755 mmHg 82%
    05:00 +30°C° 0 mm 3 mps 755 mmHg 83%
    06:00 +30°C° 0 mm 2 mps 755 mmHg 84%
    07:00 +31°C° 0 mm 3 mps 755 mmHg 77%
    08:00 +33°C° 0 mm 3 mps 755 mmHg 71%
    09:00 +35°C° 0 mm 3 mps 756 mmHg 64%
    10:00 +36°C° 0 mm 3 mps 756 mmHg 59%
    11:00 +37°C° 0 mm 4 mps 755 mmHg 54%
    12:00 +40°C° 0 mm 4 mps 755 mmHg 49%
    13:00 +40°C° 0.2 mm 4 mps 755 mmHg 48%
    14:00 +40°C° 0.2 mm 5 mps 754 mmHg 48%
    15:00 +40°C° 0.2 mm 5 mps 753 mmHg 48%
    16:00 +38°C° 0.2 mm 6 mps 753 mmHg 54%
    17:00 +36°C° 0.2 mm 6 mps 753 mmHg 60%
    18:00 +34°C° 0.2 mm 7 mps 753 mmHg 66%
    19:00 +34°C° 0.1 mm 6 mps 753 mmHg 70%
    20:00 +33°C° 0.1 mm 6 mps 753 mmHg 74%
    21:00 +32°C° 0.1 mm 6 mps 753 mmHg 78%
    22:00 +32°C° 0 mm 6 mps 754 mmHg 80%
    23:00 +30°C° 0 mm 6 mps 754 mmHg 81%

    Tomorrow, 2 June, Tuesday

    Time Temperature Precipitation Wind Pressure Humidity
    00:00 +30°C° 0 mm 5 mps 754 mmHg 82%
    01:00 +30°C° 0 mm 5 mps 754 mmHg 81%
    02:00 +30°C° 0 mm 5 mps 753 mmHg 79%
    03:00 +32°C° 0 mm 5 mps 753 mmHg 78%
    04:00 +32°C° 0 mm 5 mps 753 mmHg 78%
    05:00 +32°C° 0 mm 4 mps 754 mmHg 78%
    06:00 +32°C° 0 mm 4 mps 754 mmHg 77%
    07:00 +33°C° 0 mm 4 mps 754 mmHg 73%
    08:00 +34°C° 0 mm 5 mps 754 mmHg 68%
    09:00 +35°C° 0 mm 5 mps 755 mmHg 63%
    10:00 +36°C° 0 mm 6 mps 755 mmHg 59%
    11:00 +38°C° 0 mm 6 mps 754 mmHg 55%
    12:00 +40°C° 0 mm 7 mps 754 mmHg 50%
    13:00 +39°C° 0 mm 7 mps 754 mmHg 51%
    14:00 +39°C° 0 mm 7 mps 753 mmHg 52%
    15:00 +39°C° 0 mm 8 mps 752 mmHg 53%
    16:00 +38°C° 0 mm 7 mps 752 mmHg 58%
    17:00 +35°C° 0 mm 7 mps 751 mmHg 63%
    18:00 +34°C° 0 mm 6 mps 751 mmHg 68%
    19:00 +34°C° 0 mm 6 mps 752 mmHg 71%
    20:00 +33°C° 0 mm 6 mps 752 mmHg 75%
    21:00 +32°C° 0 mm 6 mps 753 mmHg 79%
    22:00 +32°C° 0.8 mm 5 mps 753 mmHg 79%
    23:00 +32°C° 0.8 mm 5 mps 753 mmHg 79%

    Day after tomorrow, 3 June, Wednesday

    Time Temperature Precipitation Wind Pressure Humidity
    00:00 +32°C° 0.8 mm 5 mps 753 mmHg 78%
    01:00 +32°C° 2.1 mm 4 mps 753 mmHg 79%
    02:00 +32°C° 2.1 mm 4 mps 753 mmHg 80%
    03:00 +30°C° 2.1 mm 4 mps 752 mmHg 80%
    04:00 +30°C° 0 mm 4 mps 752 mmHg 81%
    05:00 +32°C° 0 mm 4 mps 753 mmHg 83%
    06:00 +32°C° 0 mm 4 mps 753 mmHg 84%
    07:00 +33°C° 0 mm 5 mps 753 mmHg 78%
    08:00 +34°C° 0 mm 5 mps 754 mmHg 72%
    09:00 +35°C° 0 mm 6 mps 754 mmHg 66%
    10:00 +36°C° 1 mm 6 mps 754 mmHg 65%
    11:00 +36°C° 1 mm 6 mps 753 mmHg 63%
    12:00 +38°C° 1 mm 6 mps 753 mmHg 61%
    13:00 +38°C° 1.8 mm 6 mps 752 mmHg 60%
    14:00 +38°C° 1.8 mm 6 mps 752 mmHg 60%
    15:00 +38°C° 1.8 mm 6 mps 751 mmHg 59%
    16:00 +34°C° 4.2 mm 5 mps 751 mmHg 66%
    17:00 +32°C° 4.2 mm 5 mps 751 mmHg 72%
    18:00 +28°C° 4.2 mm 4 mps 751 mmHg 78%
    19:00 +29°C° 0.4 mm 3 mps 752 mmHg 76%
    20:00 +29°C° 0.4 mm 3 mps 752 mmHg 73%
    21:00 +29°C° 0.4 mm 2 mps 753 mmHg 71%
    22:00 +29°C° 0 mm 2 mps 753 mmHg 74%
    23:00 +29°C° 0 mm 2 mps 753 mmHg 78%

    4 June, Thursday

    Time Temperature Precipitation Wind Pressure Humidity
    00:00 +29°C° 0 mm 2 mps 753 mmHg 81%
    01:00 +29°C° 0 mm 2 mps 753 mmHg 83%
    02:00 +29°C° 0 mm 1 mps 752 mmHg 85%
    03:00 +29°C° 0 mm 1 mps 752 mmHg 88%
    04:00 +29°C° 0 mm 1 mps 752 mmHg 87%
    05:00 +30°C° 0 mm 1 mps 753 mmHg 87%
    06:00 +30°C° 0 mm 1 mps 753 mmHg 87%
    07:00 +31°C° 0 mm 1 mps 753 mmHg 78%
    08:00 +34°C° 0 mm 2 mps 754 mmHg 68%
    09:00 +36°C° 0 mm 2 mps 754 mmHg 59%
    10:00 +37°C° 0 mm 3 mps 754 mmHg 54%
    11:00 +38°C° 0 mm 3 mps 754 mmHg 50%
    12:00 +39°C° 0 mm 3 mps 753 mmHg 45%
    13:00 +40°C° 0.3 mm 4 mps 753 mmHg 46%
    14:00 +40°C° 0.3 mm 4 mps 752 mmHg 47%
    15:00 +39°C° 0.3 mm 5 mps 752 mmHg 48%
    16:00 +37°C° 0 mm 5 mps 751 mmHg 52%
    17:00 +36°C° 0 mm 5 mps 751 mmHg 57%
    18:00 +35°C° 0 mm 6 mps 751 mmHg 61%
    19:00 +34°C° 0.1 mm 5 mps 752 mmHg 67%
    20:00 +33°C° 0.1 mm 5 mps 752 mmHg 73%
    21:00 +32°C° 0.1 mm 4 mps 753 mmHg 78%
    22:00 +32°C° 0 mm 4 mps 753 mmHg 80%
    23:00 +32°C° 0 mm 4 mps 753 mmHg 82%

    5 June, Friday

    Time Temperature Precipitation Wind Pressure Humidity
    00:00 +30°C° 0 mm 4 mps 752 mmHg 83%
    01:00 +30°C° 0 mm 4 mps 752 mmHg 84%
    02:00 +30°C° 0 mm 3 mps 752 mmHg 85%
    03:00 +30°C° 0 mm 3 mps 752 mmHg 86%
    04:00 +30°C° 0 mm 3 mps 752 mmHg 86%
    05:00 +30°C° 0 mm 3 mps 752 mmHg 85%
    06:00 +30°C° 0 mm 3 mps 752 mmHg 85%
    07:00 +33°C° 0 mm 3 mps 753 mmHg 77%
    08:00 +34°C° 0 mm 4 mps 753 mmHg 68%
    09:00 +36°C° 0 mm 4 mps 754 mmHg 60%
    10:00 +37°C° 0 mm 5 mps 753 mmHg 56%
    11:00 +39°C° 0 mm 5 mps 753 mmHg 52%
    12:00 +40°C° 0 mm 5 mps 753 mmHg 48%
    13:00 +40°C° 0 mm 5 mps 752 mmHg 50%
    14:00 +39°C° 0 mm 6 mps 752 mmHg 51%
    15:00 +39°C° 0 mm 6 mps 751 mmHg 53%
    16:00 +38°C° 0 mm 6 mps 751 mmHg 58%
    17:00 +36°C° 0 mm 6 mps 750 mmHg 63%
    18:00 +35°C° 0 mm 6 mps 750 mmHg 69%
    19:00 +34°C° 0 mm 6 mps 751 mmHg 72%
    20:00 +33°C° 0 mm 6 mps 751 mmHg 76%
    21:00 +32°C° 0 mm 6 mps 752 mmHg 80%
    22:00 +32°C° 0 mm 5 mps 752 mmHg 81%
    23:00 +32°C° 0 mm 5 mps 752 mmHg 82%

    6 June, Saturday

    Time Temperature Precipitation Wind Pressure Humidity
    00:00 +32°C° 0 mm 5 mps 752 mmHg 84%
    01:00 +32°C° 0 mm 4 mps 751 mmHg 84%
    02:00 +32°C° 0 mm 4 mps 751 mmHg 84%
    03:00 +32°C° 0 mm 4 mps 751 mmHg 84%
    04:00 +32°C° 0 mm 4 mps 751 mmHg 83%
    05:00 +32°C° 0 mm 4 mps 751 mmHg 83%
    06:00 +32°C° 0 mm 4 mps 751 mmHg 82%
    07:00 +34°C° 0 mm 4 mps 751 mmHg 73%
    08:00 +35°C° 0 mm 5 mps 752 mmHg 63%
    09:00 +37°C° 0 mm 5 mps 752 mmHg 54%
    10:00 +39°C° 0 mm 5 mps 752 mmHg 51%
    11:00 +40°C° 0 mm 5 mps 751 mmHg 49%
    12:00 +41°C° 0 mm 6 mps 751 mmHg 46%
    13:00 +40°C° 0 mm 6 mps 751 mmHg 49%
    14:00 +40°C° 0 mm 7 mps 750 mmHg 52%
    15:00 +39°C° 0 mm 7 mps 749 mmHg 54%
    16:00 +38°C° 0.1 mm 7 mps 749 mmHg 60%
    17:00 +36°C° 0.1 mm 6 mps 749 mmHg 66%
    18:00 +34°C° 0.1 mm 6 mps 749 mmHg 71%
    19:00 +34°C° 0 mm 6 mps 750 mmHg 75%
    20:00 +33°C° 0 mm 6 mps 750 mmHg 78%
    21:00 +33°C° 0 mm 5 mps 751 mmHg 81%
    22:00 +33°C° 0 mm 5 mps 751 mmHg 82%
    23:00 +32°C° 0 mm 5 mps 751 mmHg 83%
    Show more